GW4866 Weather Reports


time (UTC)temp
F
wind
direction
speed
knots
gust
knots
rain 1hr
in
rain 24hr
in
rain mn
in
humidity
%
barometer
mb
20260508004505 62 92 1.7 4.3 0.00 0.03 0.02 26 1015.1
20260508004004 61 96 1.7 4.3 0.00 0.03 0.02 26 1015.1
20260508003505 62 96 1.7 4.3 0.00 0.03 0.02 26 1015.1
20260508003005 62 94 1.7 5.2 0.00 0.03 0.02 26 1015.1
20260508002004 64 115 0.9 5.2 0.00 0.03 0.02 25 1015.1
20260508001505 65 158 0.9 3.5 0.00 0.03 0.02 24 1015.1
20260508001004 65 138 0.9 3.5 0.00 0.03 0.02 24 1015.2
20260508000504 65 131 0.9 3.5 0.00 0.03 0.02 25 1015.3
20260507235504 64 121 0.9 3.5 0.00 0.04 0.02 25 1015.0
20260507235004 65 123 0.9 4.3 0.00 0.04 0.02 24 1015.0
20260507234504 65 106 0.9 4.3 0.00 0.04 0.02 24 1014.9
20260507234004 65 103 0.9 3.5 0.00 0.04 0.02 25 1015.1
20260507233504 64 128 0.9 3.5 0.00 0.04 0.02 26 1015.1
20260507233004 64 106 1.7 4.3 0.00 0.04 0.02 24 1015.2
20260507232504 64 94 0.9 4.3 0.00 0.05 0.02 23 1015.2
20260507232005 65 114 0.9 2.6 0.00 0.05 0.02 24 1015.1
20260507231505 66 153 0.9 2.6 0.00 0.05 0.02 23 1015.2
20260507231004 66 120 0.9 4.3 0.00 0.05 0.02 26 1015.6
20260507230505 65 152 0.9 4.3 0.00 0.05 0.02 27 1015.6
20260507230005 64 170 1.7 4.3 0.00 0.06 0.02 25 1015.4
20260507225505 64 143 1.7 4.3 0.00 0.06 0.02 24 1015.0
20260507225004 65 122 1.7 4.3 0.00 0.06 0.02 24 1015.1
20260507224505 65 129 2.6 7.0 0.00 0.06 0.02 24 1015.1
20260507224004 65 129 2.6 9.6 0.00 0.07 0.02 24 1015.1
20260507223505 65 104 2.6 9.6 0.00 0.07 0.02 24 1015.1
20260507222005 66 109 1.7 5.2 0.00 0.08 0.02 23 1015.3
20260507221504 66 98 2.6 6.1 0.00 0.08 0.02 24 1015.5
20260507221005 66 91 3.5 10.4 0.00 0.09 0.02 23 1015.5
20260507220504 67 89 3.5 10.4 0.00 0.09 0.02 22 1015.7
20260507220004 69 90 3.5 8.7 0.00 0.09 0.02 21 1015.7
20260507215004 68 116 2.6 9.6 0.00 0.10 0.02 22 1015.6
20260507214505 69 102 3.5 10.4 0.00 0.10 0.02 22 1015.6
20260507214004 69 99 2.6 10.4 0.00 0.11 0.02 23 1015.7
20260507213004 68 124 1.7 6.1 0.00 0.13 0.02 25 1015.7
20260507211504 67 107 0.9 4.3 0.00 0.17 0.02 27 1016.4
20260507211005 67 126 1.7 4.3 0.00 0.18 0.02 27 1016.3
20260507210505 66 135 1.7 7.0 0.00 0.18 0.02 25 1016.6
20260507210005 66 107 1.7 7.0 0.00 0.19 0.02 26 1016.7
20260507205505 66 109 2.6 8.7 0.00 0.19 0.02 26 1016.4
20260507205004 66 107 2.6 8.7 0.00 0.19 0.02 25 1016.7
20260507203505 66 120 1.7 11.3 0.00 0.20 0.02 25 1017.1
20260507202504 65 95 2.6 11.3 0.00 0.20 0.02 25 1017.0
20260507202004 66 106 1.7 5.2 0.00 0.20 0.02 27 1017.4
20260507201504 66 110 1.7 7.8 0.00 0.20 0.02 27 1017.5
20260507201005 65 111 2.6 7.8 0.00 0.20 0.02 28 1017.5
20260507200504 65 97 2.6 7.0 0.00 0.21 0.02 28 1017.7
20260507195504 65 116 1.7 4.3 0.00 0.21 0.02 28 1017.1
20260507195005 65 112 1.7 4.3 0.00 0.21 0.02 29 1017.3
20260507194004 64 92 1.7 7.0 0.00 0.21 0.02 27 1017.5
20260507193004 65 108 1.7 5.2 0.00 0.21 0.02 27 1017.5
20260507192505 64 104 1.7 7.0 0.00 0.21 0.02 28 1017.6
20260507191505 65 144 1.7 5.2 0.00 0.21 0.02 26 1017.8
20260507191005 65 125 1.7 4.3 0.00 0.21 0.02 27 1017.9
20260507190005 64 107 1.7 5.2 0.00 0.21 0.02 25 1018.1
20260507185504 64 105 1.7 6.1 0.00 0.21 0.02 26 1017.6
20260507184504 63 102 0.9 3.5 0.00 0.21 0.02 24 1017.7
20260507184004 63 89 0.9 5.2 0.00 0.21 0.02 25 1017.7
20260507183505 62 90 0.9 5.2 0.00 0.21 0.02 25 1017.8
20260507183004 62 101 0.9 4.3 0.00 0.21 0.02 25 1017.8
20260507182505 62 100 0.9 4.3 0.00 0.21 0.02 25 1017.9
20260507182004 62 104 0.9 3.5 0.00 0.21 0.02 26 1017.9
20260507181504 62 132 0.9 3.5 0.00 0.21 0.02 25 1018.0
20260507181005 63 155 0.9 3.5 0.00 0.21 0.02 23 1017.9
20260507180504 63 167 0.9 3.5 0.00 0.21 0.02 26 1018.1
20260507180005 63 152 0.9 3.5 0.00 0.21 0.02 25 1018.3
20260507175504 62 93 0.9 2.6 0.00 0.21 0.02 25 1018.0
20260507175004 62 94 0.9 4.3 0.00 0.21 0.02 26 1018.1
20260507174505 62 96 0.9 4.3 0.00 0.21 0.02 26 1018.2
20260507174004 62 104 0.9 4.3 0.00 0.21 0.02 27 1018.3
20260507173505 61 109 1.7 7.8 0.00 0.21 0.02 25 1018.5
20260507173004 61 109 0.9 7.8 0.00 0.21 0.02 25 1018.7
20260507172504 62 149 0.9 5.2 0.00 0.21 0.02 27 1018.7
20260507172004 61 105 0.9 5.2 0.00 0.21 0.02 25 1018.9
20260507171504 61 95 0.9 4.3 0.00 0.21 0.02 25 1019.0
20260507171005 62 106 0.9 3.5 0.00 0.21 0.02 25 1019.0
20260507170004 61 97 0.9 2.6 0.00 0.21 0.02 25 1019.2
20260507165505 60 108 0.9 3.5 0.00 0.21 0.02 26 1018.8
20260507165005 60 115 0.9 3.5 0.00 0.21 0.02 27 1019.0
20260507164504 59 110 0.9 3.5 0.00 0.21 0.02 25 1018.9
20260507164004 59 117 0.9 3.5 0.00 0.21 0.02 26 1019.0
20260507163505 59 122 0.9 3.5 0.01 0.21 0.02 25 1019.0
20260507163004 59 109 0.9 2.6 0.01 0.21 0.02 25 1019.1
20260507162504 58 97 0.9 3.5 0.01 0.21 0.02 29 1018.8
20260507162004 58 97 1.7 4.3 0.01 0.21 0.02 28 1018.9
20260507161005 57 109 0.9 4.3 0.01 0.21 0.02 27 1018.9
20260507160504 57 120 0.0 2.6 0.01 0.21 0.02 30 1019.2
20260507160005 57 104 0.0 1.7 0.01 0.21 0.02 30 1019.2
20260507155505 56 85 0.9 3.5 0.02 0.21 0.02 31 1018.8
20260507155005 55 93 0.9 4.3 0.02 0.21 0.02 32 1018.9
20260507154504 55 112 0.9 4.3 0.02 0.21 0.02 32 1019.0
20260507154005 55 111 0.9 3.5 0.02 0.21 0.02 34 1019.0
20260507153505 55 112 0.9 2.6 0.01 0.20 0.01 33 1019.1
20260507153005 54 108 0.9 5.2 0.01 0.20 0.01 36 1019.1
20260507152505 53 100 1.7 5.2 0.01 0.20 0.01 34 1019.1
20260507152005 53 104 0.9 5.2 0.01 0.20 0.01 35 1019.1
20260507151504 52 101 0.9 3.5 0.01 0.20 0.01 38 1019.2
20260507151005 52 90 0.9 2.6 0.01 0.20 0.01 38 1019.2
20260507150504 52 98 0.0 1.7 0.01 0.20 0.01 40 1019.3
20260507145505 50 104 0.0 1.7 0.00 0.19 0.00 43 1018.9
20260507145004 50 124 0.0 2.6 0.00 0.19 0.00 41 1018.8
20260507144504 49 153 0.0 2.6 0.00 0.19 0.00 42 1018.9
20260507144005 48 170 0.0 2.6 0.00 0.19 0.00 46 1019.1
20260507143504 48 129 0.0 0.9 0.00 0.19 0.00 46 1019.1
20260507143004 48 149 0.0 1.7 0.00 0.19 0.00 47 1019.1
20260507142504 47 161 0.0 1.7 0.00 0.19 0.00 48 1019.1
20260507142004 46 151 0.0 0.9 0.00 0.19 0.00 50 1019.2
20260507141504 46 189 0.0 0.9 0.00 0.19 0.00 50 1019.2
20260507141004 45 183 0.0 0.9 0.00 0.19 0.00 51 1019.2
20260507140504 44 202 0.0 0.9 0.00 0.19 0.00 50 1019.3
20260507140005 44 209 0.0 0.9 0.00 0.19 0.00 51 1019.3
20260507135504 43 207 0.0 0.9 0.00 0.19 0.00 51 1018.8
20260507135004 43 194 0.0 0.9 0.00 0.19 0.00 51 1018.8
20260507134004 41 157 0.0 0.9 0.00 0.19 0.00 53 1018.8
20260507133004 40 211 0.0 4.3 0.00 0.19 0.00 54 1018.7
20260507132504 39 207 0.0 4.3 0.00 0.19 0.00 54 1018.5
20260507132005 39 205 0.0 2.6 0.00 0.19 0.00 56 1018.5
20260507131505 38 204 0.0 2.6 0.00 0.19 0.00 57 1018.5
20260507131005 37 206 0.9 2.6 0.00 0.19 0.00 58 1018.4
20260507130504 36 204 0.9 2.6 0.00 0.19 0.00 59 1018.4
20260507130005 35 203 0.0 1.7 0.00 0.19 0.00 60 1018.4
20260507125505 35 211 0.0 3.5 0.00 0.19 0.00 60 1018.3
20260507125004 34 206 0.0 3.5 0.00 0.19 0.00 61 1018.3
20260507124504 34 199 0.0 2.6 0.00 0.19 0.00 62 1018.2
20260507124005 34 222 0.0 0.9 0.00 0.19 0.00 61 1018.2
20260507123504 34 220 0.0 0.9 0.00 0.19 0.00 62 1018.2
20260507123005 33 223 0.0 2.6 0.00 0.19 0.00 61 1018.2
20260507122504 33 221 0.0 2.6 0.00 0.19 0.00 62 1018.2
20260507121504 33 211 0.0 1.7 0.00 0.19 0.00 61 1018.2
20260507121004 33 200 0.9 3.5 0.00 0.19 0.00 61 1018.2
20260507120505 33 201 0.9 3.5 0.00 0.19 0.00 61 1018.3
20260507120005 33 210 0.0 1.7 0.00 0.19 0.00 62 1018.3
20260507115505 33 220 0.0 0.9 0.00 0.19 0.00 61 1017.7
20260507115004 33 213 0.0 3.5 0.00 0.19 0.00 61 1017.9
20260507114504 33 208 0.0 3.5 0.00 0.19 0.00 61 1017.9
20260507114004 32 197 0.0 2.6 0.00 0.19 0.00 61 1017.9
20260507113504 32 200 0.0 2.6 0.00 0.19 0.00 61 1017.9
20260507113004 32 216 0.0 0.9 0.00 0.19 0.00 60 1017.9
20260507112004 32 224 0.0 0.9 0.00 0.19 0.00 60 1017.8
20260507111506 32 226 0.0 0.9 0.00 0.19 0.00 60 1017.8
20260507111004 32 223 0.0 0.9 0.00 0.19 0.00 60 1017.8
20260507110504 32 210 0.0 1.7 0.00 0.19 0.00 60 1018.0
20260507110004 32 189 0.0 1.7 0.00 0.19 0.00 60 1017.8
20260507105504 32 191 0.9 2.6 0.00 0.19 0.00 60 1017.7
20260507105005 32 185 0.9 2.6 0.00 0.19 0.00 60 1017.7
20260507104504 32 189 0.9 2.6 0.00 0.19 0.00 61 1017.6
20260507103504 32 195 0.0 1.7 0.00 0.19 0.00 62 1017.7
20260507103005 32 205 0.9 2.6 0.00 0.19 0.00 62 1017.7
20260507102504 32 208 0.9 2.6 0.00 0.19 0.00 62 1017.7
20260507102006 32 206 0.9 2.6 0.00 0.19 0.00 63 1017.8
20260507101504 32 206 0.9 2.6 0.00 0.19 0.00 63 1017.8
20260507101004 32 209 0.0 1.7 0.00 0.19 0.00 63 1018.0
20260507100504 32 214 0.0 1.7 0.00 0.19 0.00 63 1018.0
20260507100005 32 212 0.0 1.7 0.00 0.19 0.00 64 1018.1
20260507095004 31 217 0.0 1.7 0.00 0.19 0.00 65 1018.0
20260507094504 31 217 0.0 1.7 0.00 0.19 0.00 65 1017.9
20260507094005 31 216 0.0 1.7 0.00 0.19 0.00 65 1018.0
20260507093504 31 208 0.0 1.7 0.00 0.19 0.00 66 1018.0
20260507092505 31 203 0.9 1.7 0.00 0.19 0.00 67 1018.0
20260507092005 31 209 0.0 1.7 0.00 0.19 0.00 69 1018.0
20260507091504 30 204 0.0 0.9 0.00 0.19 0.00 70 1018.2
20260507091004 30 205 0.0 0.9 0.00 0.19 0.00 71 1018.2
20260507090504 30 205 0.0 0.9 0.00 0.19 0.00 72 1018.3
20260507090005 30 205 0.0 0.9 0.00 0.19 0.00 73 1018.4
20260507085504 30 205 0.0 0.9 0.00 0.19 0.00 74 1018.4
20260507085004 30 0 0.0 0.0 0.00 0.19 0.00 75 1018.3
20260507084505 30 201 0.0 0.9 0.00 0.19 0.00 75 1018.3
20260507084004 30 216 0.0 1.7 0.00 0.19 0.00 76 1018.3
20260507083504 30 216 0.0 1.7 0.00 0.19 0.00 78 1018.4
20260507083005 29 177 0.0 0.9 0.00 0.19 0.00 78 1018.2
20260507082504 29 167 0.0 0.9 0.00 0.19 0.00 80 1018.5
20260507082004 29 169 0.0 0.9 0.00 0.19 0.00 81 1018.5
20260507081504 29 190 0.0 1.7 0.00 0.19 0.00 82 1018.5
20260507081005 28 209 0.0 1.7 0.00 0.19 0.00 84 1018.5
20260507080504 28 236 0.0 0.9 0.00 0.19 0.00 85 1018.6
20260507080005 28 255 0.0 0.9 0.00 0.19 0.00 85 1018.7
20260507075504 28 0 0.0 0.0 0.00 0.19 0.00 86 1018.7
20260507075005 28 0 0.0 0.0 0.00 0.19 0.00 86 1018.6
20260507074504 28 0 0.0 0.0 0.00 0.19 0.00 87 1018.7
20260507074004 28 0 0.0 0.0 0.00 0.19 0.00 88 1018.8
20260507073004 28 0 0.0 0.0 0.00 0.19 0.00 90 1018.9
20260507072505 28 0 0.0 0.0 0.00 0.19 0.00 91 1018.9
20260507071505 27 0 0.0 0.0 0.00 0.19 0.00 93 1018.9
20260507071004 26 0 0.0 0.0 0.00 0.19 0.00 93 1018.9
20260507070504 26 0 0.0 0.0 0.00 0.19 0.00 93 1018.9
20260507070009 26 0 0.0 0.0 0.00 0.19 0.00 93 1018.9
20260507065504 26 0 0.0 0.0 0.00 0.19 0.00 93 1019.0
20260507065004 27 0 0.0 0.0 0.00 0.19 0.00 93 1018.9
20260507064504 27 0 0.0 0.0 0.00 0.19 0.00 93 1018.9
20260507064004 27 0 0.0 0.0 0.00 0.19 0.00 93 1019.0
20260507063004 27 0 0.0 0.0 0.00 0.19 0.00 93 1018.9
20260507062504 27 0 0.0 0.0 0.00 0.19 0.00 93 1018.9
20260507062004 27 0 0.0 0.0 0.00 0.19 0.00 93 1018.9
20260507061504 27 0 0.0 0.0 0.00 0.19 0.00 93 1018.9
20260507061004 28 0 0.0 0.0 0.00 0.19 0.00 93 1018.9
20260507060504 28 0 0.0 0.0 0.00 0.19 0.00 93 1018.9
20260507060009 28 0 0.0 0.0 0.00 0.19 0.00 93 1018.9
20260507055504 28 0 0.0 0.0 0.00 0.19 0.19 93 1018.8
20260507055005 28 0 0.0 0.0 0.00 0.19 0.19 93 1018.7
20260507054504 29 0 0.0 0.0 0.00 0.19 0.19 92 1018.6
20260507054005 29 0 0.0 0.0 0.00 0.19 0.19 92 1018.6
20260507053504 29 321 0.0 0.9 0.00 0.19 0.19 92 1018.7
20260507053005 29 321 0.0 0.9 0.00 0.19 0.19 92 1018.7
20260507052504 29 314 0.0 1.7 0.00 0.19 0.19 92 1018.7
20260507052005 29 314 0.0 1.7 0.00 0.19 0.19 92 1018.6
20260507050504 30 311 0.0 1.7 0.00 0.19 0.19 91 1018.6
20260507050005 30 282 0.0 1.7 0.00 0.19 0.19 91 1018.6
20260507045504 30 284 0.0 1.7 0.00 0.19 0.19 91 1018.6
20260507045005 30 297 0.0 1.7 0.00 0.19 0.19 91 1018.7
20260507044504 30 281 0.0 1.7 0.00 0.19 0.19 91 1018.7
20260507044004 30 287 0.0 1.7 0.00 0.19 0.19 91 1018.6
20260507043504 30 303 0.0 1.7 0.00 0.19 0.19 91 1018.7
20260507042504 30 303 0.0 2.6 0.00 0.19 0.19 91 1018.8
20260507042004 30 303 0.0 1.7 0.00 0.19 0.19 91 1018.8
20260507041504 30 300 0.9 2.6 0.00 0.19 0.19 90 1018.8
20260507041005 30 304 0.0 2.6 0.00 0.19 0.19 90 1018.9
20260507040504 30 307 0.0 2.6 0.00 0.19 0.19 90 1018.8
20260507040004 30 304 0.0 2.6 0.00 0.19 0.19 89 1018.8
20260507035504 30 299 0.0 1.7 0.00 0.19 0.19 89 1018.8
20260507034004 30 302 0.0 2.6 0.00 0.19 0.19 87 1018.7
20260507033004 31 68 0.0 0.9 0.00 0.19 0.19 87 1018.6
20260507032004 31 309 0.0 1.7 0.00 0.19 0.19 86 1018.4
20260507031504 31 302 0.0 1.7 0.00 0.19 0.19 86 1018.4
20260507031005 31 300 0.0 1.7 0.00 0.19 0.19 85 1018.4
20260507030504 31 300 0.0 0.9 0.00 0.19 0.19 85 1018.3
20260507030005 31 278 0.0 1.7 0.00 0.19 0.19 85 1018.3
20260507025504 31 222 0.0 1.7 0.00 0.19 0.19 84 1018.2
20260507025005 31 128 0.0 0.9 0.00 0.19 0.19 84 1018.2
20260507023504 32 356 0.0 1.7 0.00 0.19 0.19 83 1018.1
20260507023004 32 97 0.0 1.7 0.00 0.19 0.19 82 1018.1
20260507022504 32 83 0.0 2.6 0.00 0.19 0.19 81 1018.1
20260507022005 32 76 0.0 2.6 0.00 0.19 0.19 81 1018.1
20260507021005 32 84 0.9 2.6 0.01 0.19 0.19 80 1018.0
20260507020504 33 75 0.9 5.2 0.01 0.19 0.19 79 1018.0
20260507020005 33 60 0.9 5.2 0.01 0.19 0.19 79 1017.9
20260507015504 33 292 0.0 3.5 0.01 0.19 0.19 79 1017.8
20260507014504 34 80 0.9 3.5 0.01 0.19 0.19 77 1017.9
20260507014005 34 68 0.9 6.1 0.01 0.19 0.19 76 1017.8
20260507013504 34 77 0.9 6.1 0.01 0.19 0.19 76 1018.0
20260507013005 34 92 0.9 2.6 0.01 0.19 0.19 76 1017.9
20260507012504 35 81 0.9 4.3 0.01 0.19 0.19 75 1017.9
20260507012004 35 72 0.9 5.2 0.01 0.19 0.19 74 1017.9
20260507011505 35 66 1.7 8.7 0.00 0.18 0.18 73 1017.7
20260507011004 35 64 1.7 8.7 0.00 0.18 0.18 73 1017.7
20260507010504 36 63 1.7 7.8 0.00 0.18 0.18 73 1017.9
20260507005504 36 64 0.9 4.3 0.01 0.18 0.18 72 1017.7
20260507005004 36 57 1.7 6.1 0.01 0.19 0.18 72 1017.7